Location: Home
(51.5204°N, 2.5456°W)
Time: 02:16:10
(UTC+00:00)

CUTE-I - Visible Passes

Search period start: 14 December 2019 00:00
Search period end: 24 December 2019 00:00
Orbit: 811 x 824 km, 98.7° (Epoch: 12 December)

Date Brightness Start Highest point End Pass type
(mag) Time Alt. Az. Time Alt. Az. Time Alt. Az.
14 Dec ? 05:35:10 10° NE 05:39:26 23° E 05:43:39 10° SE visible
14 Dec ? 07:14:36 10° N 07:19:56 64° WNW 07:25:12 10° SSW visible
14 Dec ? 17:01:51 10° SSE 17:07:08 62° ENE 17:12:28 10° N visible
14 Dec ? 18:43:14 10° SW 18:47:35 25° W 18:51:58 10° NW visible
15 Dec ? 05:14:28 10° NE 05:17:43 16° E 05:20:57 10° SE visible
15 Dec ? 06:53:07 10° NNE 06:58:33 89° SE 07:03:53 10° SSW visible
15 Dec ? 16:40:46 10° SE 16:45:49 43° ENE 16:50:54 10° N visible
15 Dec ? 18:21:04 10° SSW 18:25:58 35° W 18:30:54 10° NNW visible
16 Dec ? 04:54:56 10° ENE 04:55:56 10° E 04:56:56 10° E visible
16 Dec ? 06:31:44 10° NNE 06:37:05 63° ESE 06:42:22 10° S visible
16 Dec ? 17:59:11 10° S 18:04:24 51° W 18:09:40 10° NNW visible
17 Dec ? 06:10:26 10° NNE 06:15:33 43° E 06:20:37 10° S visible
17 Dec ? 17:37:32 10° S 17:42:55 74° WSW 17:48:20 10° NNW visible
17 Dec ? 19:21:30 10° WSW 19:23:54 13° W 19:26:19 10° WNW visible
18 Dec ? 05:49:17 10° NNE 05:53:58 30° E 05:58:36 10° SSE visible
18 Dec ? 07:29:04 10° N 07:34:15 50° WNW 07:39:24 10° SW visible
18 Dec ? 17:16:07 10° SSE 17:21:29 78° ENE 17:26:54 10° NNW visible
18 Dec ? 18:58:22 10° SW 19:02:09 19° W 19:05:57 10° NW visible
19 Dec ? 05:28:20 10° NE 05:32:19 21° E 05:36:15 10° SE visible
19 Dec ? 07:07:32 10° NNE 07:12:54 72° WNW 07:18:12 10° SSW visible
19 Dec ? 16:54:54 10° SE 17:00:08 55° ENE 17:05:23 10° N visible
19 Dec ? 18:35:55 10° SSW 18:40:28 28° W 18:45:04 10° NW visible
20 Dec ? 05:07:49 10° NE 05:10:34 14° E 05:13:19 10° ESE visible
20 Dec ? 06:46:05 10° NNE 06:51:29 80° ESE 06:56:50 10° SSW visible
20 Dec ? 16:33:53 10° SE 16:38:50 39° ENE 16:43:47 10° N visible
20 Dec ? 18:13:51 10° SSW 18:18:52 40° W 18:23:56 10° NNW visible
21 Dec ? 06:24:44 10° NNE 06:30:01 55° E 06:35:14 10° S visible
21 Dec ? 17:52:02 10° S 17:57:20 58° WSW 18:02:40 10° NNW visible
22 Dec ? 06:03:28 10° NNE 06:08:28 38° E 06:13:24 10° SSE visible
22 Dec ? 17:30:29 10° SSE 17:35:52 83° WSW 17:41:18 10° NNW visible
22 Dec ? 19:13:47 10° WSW 19:16:45 15° W 19:19:43 10° NW visible
23 Dec ? 05:42:22 10° NE 05:46:51 26° E 05:51:17 10° SSE visible
23 Dec ? 07:21:59 10° N 07:27:14 57° WNW 07:32:26 10° SW visible
23 Dec ? 17:09:07 10° SSE 17:14:28 70° ENE 17:19:50 10° NNW visible
23 Dec ? 18:50:56 10° SW 18:55:01 22° W 18:59:07 10° NW visible
